Waarnemingen

Advertentie
Mijn weer
Santander, Spanje (8023): temperatuur & dauwpunt: 20.09.2018 17:00:00 - 26.09.2018 17:00:00 (CEST)Santander, Spanje (8023): windsnelheid: 20.09.2018 17:00:00 - 26.09.2018 17:00:00 (CEST)Santander, Spanje (8023): windrichting: 20.09.2018 17:00:00 - 26.09.2018 17:00:00 (CEST)Santander, Spanje (8023): luchtdruk: 20.09.2018 17:00:00 - 26.09.2018 17:00:00 (CEST)Santander, Spanje (8023): zicht: 20.09.2018 17:00:00 - 26.09.2018 17:00:00 (CEST)Santander, Spanje (8023): neerslag: 20.09.2018 17:00:00 - 26.09.2018 17:00:00 (CEST)
Datum & Tijd tt [°C] td [°C] ff [km/u] ff [kn] dd ppp [hPa] vv [km] rr [mm]
26.09.2018 17:00:00 - - - - - - - -
26.09.2018 16:00:00 19,5 15,2 11 6 W 1023,3 20 0,0
26.09.2018 15:00:00 19,6 14,6 9 5 W 1023,6 20 0,0
26.09.2018 14:00:00 19,1 14,6 9 5 W 1024,1 12 -
26.09.2018 13:00:00 17,7 12,8 4 2 NW 1024,5 11 0,0
26.09.2018 12:00:00 17,8 13,3 5 3 WNW 1024,9 14 0,0
26.09.2018 11:00:00 18,8 12,8 5 3 ZZO 1025,0 14 -
26.09.2018 10:00:00 16,4 12,4 16 9 OZO 1024,7 20 0,0
26.09.2018 09:00:00 14,6 12,1 15 8 OZO 1024,5 20 0,0
26.09.2018 08:00:00 12,2 10,4 16 9 ZO 1024,3 30 -
26.09.2018 07:00:00 12,1 10,0 9 5 ZO 1024,2 18 0,0
26.09.2018 06:00:00 13,2 10,7 18 10 OZO 1024,2 20 0,0
26.09.2018 05:00:00 12,2 10,6 13 7 ZO 1024,9 30 -
26.09.2018 04:00:00 12,5 10,9 16 9 ZO 1025,7 20 0,0
26.09.2018 03:00:00 12,4 10,5 15 8 ZO 1026,4 20 0,0
26.09.2018 02:00:00 12,7 10,8 15 8 ZO 1027,0 30 -
26.09.2018 01:00:00 12,9 11,0 13 7 ZO 1027,4 20 0,0
26.09.2018 00:00:00 12,5 10,4 11 6 ZZO 1027,6 20 0,0
25.09.2018 23:00:00 13,2 10,6 11 6 ZO 1027,8 30 -
25.09.2018 22:00:00 14,6 10,6 11 6 O 1027,7 19 0,0
25.09.2018 21:00:00 14,9 10,5 15 8 ONO 1027,6 15 0,0
25.09.2018 20:00:00 15,2 10,6 15 8 ONO 1027,2 20 -
25.09.2018 19:00:00 16,2 10,9 15 8 O 1027,1 13 0,0
25.09.2018 18:00:00 17,2 11,2 15 8 ONO 1027,3 14 0,0
25.09.2018 17:00:00 17,5 11,3 18 10 ONO 1027,7 20 -
25.09.2018 16:00:00 17,6 10,9 18 10 ONO 1028,1 13 0,0
25.09.2018 15:00:00 17,8 11,4 21 11 NO 1028,4 11 0,0
25.09.2018 14:00:00 17,9 12,3 15 8 NO 1028,9 20 -
25.09.2018 13:00:00 17,8 12,3 8 4 NO 1029,2 11 0,0
25.09.2018 12:00:00 16,8 12,1 5 3 NNO 1029,6 9 0,0
25.09.2018 11:00:00 16,5 11,2 5 3 NNO 1029,5 20 -
25.09.2018 10:00:00 15,5 10,7 4 2 ZZW 1029,3 14 0,0
25.09.2018 09:00:00 13,1 9,5 8 4 ZZW 1029,2 14 0,0
25.09.2018 08:00:00 12,0 8,8 15 8 ZZW 1028,9 20 -
25.09.2018 07:00:00 12,2 8,7 13 7 ZZW 1029,0 12 0,0
25.09.2018 06:00:00 12,4 9,0 13 7 ZZW 1029,1 11 0,0
25.09.2018 05:00:00 12,6 8,9 15 8 ZZW 1029,4 15 -
25.09.2018 04:00:00 12,9 9,0 16 9 ZZW 1029,9 12 0,0
25.09.2018 03:00:00 12,8 9,1 16 9 ZZW 1030,1 12 0,0
25.09.2018 02:00:00 13,1 9,5 15 8 ZZW 1030,3 17 -
25.09.2018 01:00:00 13,8 9,6 13 7 ZZW 1030,8 12 0,0
25.09.2018 00:00:00 14,1 10,5 11 6 ZZW 1031,3 12 0,0
24.09.2018 23:00:00 13,9 9,9 9 5 Z 1031,4 15 -
24.09.2018 22:00:00 14,0 9,8 9 5 ZO 1031,3 11 0,0
24.09.2018 21:00:00 15,2 9,5 15 8 O 1031,1 12 0,0
24.09.2018 20:00:00 15,5 10,3 18 10 O 1030,9 20 -
24.09.2018 19:00:00 16,0 10,3 21 11 O 1030,9 14 0,0
24.09.2018 18:00:00 17,0 11,0 21 11 ONO 1030,9 13 0,0
24.09.2018 17:00:00 17,4 11,2 21 11 ONO 1031,0 18 -
24.09.2018 16:00:00 17,8 11,4 21 11 ONO 1031,4 14 0,0
24.09.2018 15:00:00 17,8 11,8 24 13 O 1031,6 14 0,0
24.09.2018 14:00:00 17,6 12,5 28 15 ONO 1032,0 12 -
24.09.2018 13:00:00 17,1 12,6 26 14 ONO 1032,2 11 0,0
24.09.2018 12:00:00 17,0 12,9 26 14 ONO 1032,4 10 0,0
24.09.2018 11:00:00 16,9 13,0 24 13 NO 1032,2 12 -
24.09.2018 10:00:00 17,1 14,0 26 14 NO 1031,4 9 0,0
24.09.2018 09:00:00 16,6 14,1 21 11 ONO 1031,0 11 0,0
24.09.2018 08:00:00 16,8 14,6 31 17 NO 1030,2 14 -
24.09.2018 07:00:00 16,8 15,1 31 17 NO 1029,7 12 0,0
24.09.2018 06:00:00 17,0 16,5 26 14 ONO 1029,3 15 0,0
24.09.2018 05:00:00 16,9 16,6 28 15 ONO 1029,0 8 -
24.09.2018 04:00:00 17,6 17,3 26 14 ONO 1028,9 - 0,4
24.09.2018 03:00:00 18,3 17,8 21 11 ONO 1028,5 10 0,0
24.09.2018 02:00:00 18,1 17,9 21 11 NO 1028,4 8 -
24.09.2018 01:00:00 18,6 18,4 28 15 NNO 1028,0 2,6 0,8
24.09.2018 00:00:00 19,1 18,8 16 9 W 1027,7 0,9 1,0
23.09.2018 23:00:00 19,2 18,9 22 12 W 1027,4 3,0 -
23.09.2018 22:00:00 19,2 18,7 15 8 WZW 1027,4 3,7 0,0
23.09.2018 21:00:00 19,2 18,5 13 7 WZW 1027,1 3,5 0,0
23.09.2018 20:00:00 19,5 18,5 13 7 WZW 1026,7 5 -
23.09.2018 19:00:00 19,3 18,0 16 9 WZW 1026,2 7 0,0
23.09.2018 18:00:00 19,5 18,3 21 11 W 1026,0 9 0,0
23.09.2018 17:00:00 19,0 17,8 21 11 W 1025,9 6 -
23.09.2018 16:00:00 20,4 18,7 22 12 W 1025,5 8 0,0
23.09.2018 15:00:00 20,6 18,5 22 12 W 1025,4 17 0,0
23.09.2018 14:00:00 21,7 18,7 18 10 W 1024,7 20 -
23.09.2018 13:00:00 21,7 18,9 15 8 W 1024,6 20 0,0
23.09.2018 12:00:00 21,2 19,3 11 6 WNW 1024,7 20 0,0
23.09.2018 11:00:00 19,6 18,8 4 2 WNW 1024,5 10 -
23.09.2018 10:00:00 18,2 17,7 5 3 NNW 1024,2 6 0,0
23.09.2018 09:00:00 17,6 17,3 4 2 ZZW 1023,7 11 0,0
23.09.2018 08:00:00 16,8 16,3 2 1 N 1023,6 5 -
23.09.2018 07:00:00 17,2 16,9 5 3 ZW 1023,4 11 0,0
23.09.2018 06:00:00 16,8 16,5 2 1 Z 1023,5 8 0,0
23.09.2018 05:00:00 16,8 16,3 4 2 WZW 1023,6 0,2 -
23.09.2018 04:00:00 17,6 16,8 9 5 WZW 1024,2 3,2 0,0
23.09.2018 03:00:00 18,5 17,5 9 5 WZW 1024,7 7 0,0
23.09.2018 02:00:00 18,7 17,5 9 5 WZW 1025,0 15 -
23.09.2018 01:00:00 19,0 17,5 9 5 WZW 1025,0 12 0,0
23.09.2018 00:00:00 19,0 17,3 11 6 WZW 1025,2 13 0,0
22.09.2018 23:00:00 19,2 17,3 11 6 WZW 1025,0 18 -
22.09.2018 22:00:00 19,3 17,1 11 6 WZW 1024,8 7 0,0
22.09.2018 21:00:00 19,6 17,0 13 7 W 1024,1 17 0,0
22.09.2018 20:00:00 21,3 16,9 11 6 W 1023,7 20 -
22.09.2018 19:00:00 22,2 17,1 15 8 W 1023,4 20 0,0
22.09.2018 18:00:00 23,2 17,4 15 8 W 1023,4 20 0,0
22.09.2018 17:00:00 23,5 16,8 16 9 W 1023,5 20 -
22.09.2018 16:00:00 23,3 17,3 15 8 W 1023,6 20 0,0
22.09.2018 15:00:00 22,2 17,8 11 6 WNW 1023,6 18 0,0
22.09.2018 14:00:00 21,3 18,1 9 5 NW 1023,5 20 -
22.09.2018 13:00:00 20,7 16,7 4 2 N 1023,4 19 0,0
22.09.2018 12:00:00 20,2 16,8 4 2 NNO 1023,2 19 0,0
22.09.2018 11:00:00 19,6 17,4 4 2 NNO 1023,1 20 -
22.09.2018 10:00:00 19,6 18,3 2 1 Z 1022,8 18 0,0
22.09.2018 09:00:00 17,5 16,9 2 1 WNW 1022,7 4,5 0,0
22.09.2018 08:00:00 16,7 16,2 5 3 Z 1022,4 9 -
22.09.2018 07:00:00 16,6 16,1 4 2 Z 1022,2 13 0,0
22.09.2018 06:00:00 16,9 16,3 15 8 ZZO 1022,0 8 0,0
22.09.2018 05:00:00 17,2 16,4 15 8 ZZO 1022,5 10 -
22.09.2018 04:00:00 17,8 17,0 13 7 OZO 1023,3 6 0,0
22.09.2018 03:00:00 18,0 17,0 13 7 O 1023,7 6 0,0
22.09.2018 02:00:00 18,0 16,8 11 6 O 1023,8 7 -
22.09.2018 01:00:00 18,1 16,8 11 6 OZO 1024,0 10 0,0
22.09.2018 00:00:00 18,2 16,9 11 6 OZO 1024,1 11 0,0
21.09.2018 23:00:00 18,2 16,9 11 6 OZO 1024,5 10 -
21.09.2018 22:00:00 18,2 17,2 13 7 O 1024,3 11 0,0
21.09.2018 21:00:00 18,0 17,4 13 7 ONO 1024,0 11 0,0
21.09.2018 20:00:00 17,9 17,3 13 7 ONO 1023,6 5 -
21.09.2018 19:00:00 18,0 17,0 15 8 NNO 1023,5 2,8 0,2
21.09.2018 18:00:00 19,0 17,8 9 5 N 1023,2 - 0,0
21.09.2018 17:00:00 19,3 18,0 9 5 NW 1022,9 20 -
21.09.2018 16:00:00 20,8 17,6 21 11 W 1022,4 18 0,0
21.09.2018 15:00:00 21,0 16,8 18 10 W 1022,2 14 0,0
21.09.2018 14:00:00 22,5 16,8 18 10 W 1021,9 30 -
21.09.2018 13:00:00 23,2 16,5 16 9 W 1021,8 20 0,0
21.09.2018 12:00:00 22,0 15,4 13 7 W 1021,7 15 0,0
21.09.2018 11:00:00 22,7 15,5 8 4 W 1020,8 30 -
21.09.2018 10:00:00 20,9 14,8 11 6 ZW 1020,0 9 0,0
21.09.2018 09:00:00 19,4 14,9 15 8 ZZW 1019,3 8 0,0
21.09.2018 08:00:00 18,4 15,5 16 9 Z 1018,6 12 -
21.09.2018 07:00:00 18,2 16,0 16 9 ZZW 1018,2 6 0,0
21.09.2018 06:00:00 17,3 16,5 16 9 Z 1017,7 4,0 0,0
21.09.2018 05:00:00 17,6 17,0 11 6 ZW 1017,8 5 -
21.09.2018 04:00:00 17,7 17,1 11 6 ZZW 1017,8 2,2 0,0
21.09.2018 03:00:00 18,0 17,5 11 6 ZZW 1017,8 2,4 0,0
21.09.2018 02:00:00 17,9 17,4 11 6 WZW 1018,1 4,0 -
21.09.2018 01:00:00 18,2 17,7 13 7 WZW 1018,0 1,9 0,0
21.09.2018 00:00:00 18,1 17,3 15 8 WZW 1018,3 0,9 0,0
20.09.2018 23:00:00 19,1 17,9 5 3 WZW 1018,2 2,0 -
20.09.2018 22:00:00 19,3 18,0 5 3 W 1018,2 2,8 0,0
20.09.2018 21:00:00 19,6 18,1 5 3 WZW 1017,7 3,8 0,0
20.09.2018 20:00:00 20,0 18,3 8 4 WZW 1017,5 3,0 -
20.09.2018 19:00:00 20,9 18,8 11 6 W 1017,6 4,8 0,0
20.09.2018 18:00:00 21,1 19,0 13 7 WNW 1017,5 4,2 0,0
20.09.2018 17:00:00 22,4 19,9 9 5 WNW 1017,8 5 -

tt = temperatuur
td = dauwpunt
ff = windsnelheid
dd = windrichting
ppp = luchtdruk
vv = zicht
rr = neerslag

Weerstations in de omgeving